{"data":{"norad_id":52754,"intl_designator":"2022-057Y","name":"HAWK-5C","alt_names":[],"object_type":"PAYLOAD","status":"ACTIVE","operator":null,"country":"US","launch_date":"2022-05-25","launch_site_code":"AFETR","launch_vehicle":null,"mission":null,"orbit_class":"UNKNOWN","rcs_meters":null,"size_class":null,"mass_kg":null,"dimensions":null,"purposes":["tech_demo"],"wikipedia_slug":null,"has_3d_model":false,"image_url":null,"decayed_at":null,"tle_current":{"epoch":"2026-09-19T21:28:53.913216Z","epoch_age_seconds":67380,"freshness":"FRESH","line1":"1 52754U 22057Y   26262.89506844  .00014743  00000+0  22592-3 0  9992","line2":"2 52754  97.6685  68.9565 0004617  86.4388 273.7393 15.54434135241040","mean_motion":15.54434135,"eccentricity":0.0004617,"inclination_deg":97.6685,"raan_deg":68.9565,"arg_perigee_deg":86.4388,"mean_anomaly_deg":273.7393,"bstar":0.00022592,"rev_number":24104,"period_min":92.6382126831,"perigee_km":400.66680866282,"apogee_km":406.92924746773,"semimajor_km":6781.9350280653,"source":"CELESTRAK","updated_at":"2026-09-20T09:00:47.450391Z"}}}